FENGYUN 1C DEB, 31613

Orbit data source: Space-Track

FENGYUN 1C DEB, 31613 is space debris in SSO originally from a launch on Mon, 10 May 1999 UTC launched from the Taiyaun Space Center, China (TSC). Fengyun 1C debris stems from the Chinese weather satellite Fengyun-1C, which was intentionally destroyed by a Chinese anti-satellite missile in 2007. This event dramatically increased the amount of space debris, with thousands of trackable fragments posing hazards to satellites and human spaceflight. The Fengyun 1C debris cloud has become a focal point in discussions about space sustainability and the need for international regulations to prevent the creation of new debris.

Loading next visibility...
Identifier
31613, 1999-025BZT
Orbit
SSO
Country
Flag of CNCN / PRC
Related business
Manufacturer
Unknown
Mission
Spacecraft
Bus & Motor
Unknown
Mass
Unknown
Launch date (UTC)
1999-05-10 (27 years ago)
Launch vehicle
Unknown
Launch site
Taiyaun Space Center, China (TSC)
Object type
Payload
Rocket body
Debris
Shape & HBR
Unknown shape, 0.1 m
Radar Cross Section
Small (<0.1 m²)

Expand to show TLE details & history
Last TLE update: 19 hours ago

TLE from 19 hours ago
0 FENGYUN 1C DEB
1 31613U 99025BZT 25351.47462586  .00001205  00000-0  10547-2 0  9994
2 31613  98.4241 177.8968 0342663  93.4924 270.5473 13.63455514918266
Epoch: 2025-12-17T11:23Z
TLE epoch observation values (Epoch: 2025-12-17T11:23:27.674Z)
Latitude
-0.00002°
Longitude
-79.31247°
Altitude
1,032.277 km
Speed
7.333 km/s
True Right ascension
11h 51m 35s
True Declination
0° 00' 00"
Sunlit
Object was in daylight at epoch
Visualization orbit readout
Latitude
Unknown
Longitude
Unknown
Altitude
Unknown
Speed
Unknown
Apparent Right ascension
Unknown
Apparent Declination
Unknown
Sunlit
N/A
Visualization observer readout
Local Sidereal Time
05:27:00
Azimuth
Unknown
Elevation
Unknown
Doppler factor
Unknown
Orbital elements
Apogee altitude
1,273.897 km
Perigee altitude
766.857 km
Semi-major axis
7,398.514 km
Eccentricity
0.03427
Inclination
98.4241°
RAAN
177.8968°
Arg. of periapsis
93.4924°
True anomaly
266.62232°
Mean anomaly
270.5473°
Eccentric anomaly
268.58458°
Mean motion
3.41057 °/min
Orbital period
105.55 mins
BSTAR
0.0010547
Loading maneuver chart data...
Computing Atmospheric mass density...

Documentation

Showing up to 5 results
|